Location: Podia
(1.5569°N, 32.3469°E)
Time: 02:52:27
(UTC+00:00)

Hubble Space Telescope - Pass Details

Date: 13 May 2021
Orbit: 535 x 539 km, 28.5° (Epoch: 16 June)

Event Time Altitude Azimuth Distance (km) Brightness Sun altitude
Exits shadow 03:07:56 11° 259° (W) 1,711 2.7 -8.8°
Maximum altitude 03:11:40 42° 330° (NNW) 756 1.4 -7.9°
Drops below altitude 10° 03:15:34 10° 42° (NE) 1,770 4.5 -7.0°
Sets 03:17:54 0° 49° (NE) 2,658 5.8 -6.4°
